Location: Castro Valley
(37.6940°N, 122.0850°W)
Time: 16:12:19
(UTC-07:00)

Amateur Radio Satellites - All Passes

Search period start: 28 August 2014 15:42
Search period end: 29 August 2014 15:42
Location: Castro Valley, 37.6940°N, 122.0850°W

Satellite Date Start Highest point End Downlink Frequencies (MHz)
Time Altitude Azimuth
ITAMSAT 1 28 Aug 15:42:21 15:46:11 21° 266° (W) 15:50:01 435.822 SSB
Uribyol 2 28 Aug 15:54:01 15:56:56 15° 268° (W) 15:59:52 436.500 FM
AO-Echo 28 Aug 16:04:49 16:06:08 11° 269° (W) 16:07:26 ?
AO-27 28 Aug 16:14:37 16:14:56 10° 270° (W) 16:15:14 436.795 MHz FM
RS-15 28 Aug 16:20:18 16:30:21 38° 44° (NE) 16:40:40 29.354 - 29.394 USB, Beacon 29.352 USB
Sapphire 28 Aug 16:20:45 16:21:41 10° 102° (ESE) 16:22:36 437.095 MHz 1200 baud AX-25 AFSK
Gurwin Techsat 1B 28 Aug 16:25:24 16:29:08 19° 267° (W) 16:32:54 435.225 FM
OPAL 28 Aug 16:27:15 16:29:54 14° 93° (E) 16:32:33 ?
AO-7 28 Aug 16:39:48 16:48:10 87° 252° (WSW) 16:56:33 29.400 - 29.500 MHz
PCSat 28 Aug 16:46:55 16:51:02 23° 106° (ESE) 16:55:11 145.825 MHz
Uosat F 28 Aug 16:48:43 16:53:44 77° 257° (WSW) 16:58:45 435.120 FM
PANSAT 28 Aug 17:05:31 17:07:27 13° 195° (SSW) 17:09:23 not established
JAS-1B 28 Aug 17:08:00 17:11:27 12° 274° (W) 17:14:50 435.800 - 435.900 CW/SSB
ISS 28 Aug 17:13:18 17:15:37 17° 25° (NNE) 17:17:55 145.800 FM
UOSAT-12 28 Aug 17:14:59 17:16:22 11° 254° (WSW) 17:17:44 437.025 FM, 437.400 FM
Hamsat 28 Aug 17:51:45 17:55:45 40° 73° (ENE) 17:59:49 145.90 MHz
Sapphire 28 Aug 17:58:52 18:04:16 87° 297° (WNW) 18:09:43 437.095 MHz 1200 baud AX-25 AFSK
OPAL 28 Aug 18:04:00 18:09:10 65° 288° (WNW) 18:14:19 ?
JAS-2 28 Aug 18:16:02 18:22:26 75° 75° (ENE) 18:28:07 435.800 - 435.900 CW/SSB, 435.910 FM
PCSat 28 Aug 18:28:57 18:34:07 45° 303° (WNW) 18:39:19 145.825 MHz
RS-15 28 Aug 18:32:27 18:43:24 67° 246° (WSW) 18:54:50 29.354 - 29.394 USB, Beacon 29.352 USB
AO-7 28 Aug 18:37:24 18:41:54 15° 269° (W) 18:46:27 29.400 - 29.500 MHz
SO-67 28 Aug 18:45:45 18:48:12 18° 70° (ENE) 18:50:38 435.3500 MHz FM
ISS 28 Aug 18:49:20 18:52:40 71° 222° (SW) 18:55:58 145.800 FM
Hamsat 28 Aug 19:29:16 19:31:52 16° 268° (W) 19:34:30 145.90 MHz
STRAND 1 28 Aug 19:44:04 19:49:06 57° 101° (E) 19:54:06 ?
Sapphire 28 Aug 19:45:49 19:48:30 14° 316° (NW) 19:51:11 437.095 MHz 1200 baud AX-25 AFSK
JAS-2 28 Aug 20:04:47 20:07:50 14° 267° (W) 20:10:45 435.800 - 435.900 CW/SSB, 435.910 FM
SO-67 28 Aug 20:18:24 20:21:06 21° 265° (W) 20:23:48 435.3500 MHz FM
HO-68 28 Aug 20:44:45 20:51:33 49° 68° (ENE) 20:58:21 435.675 MHz FM
RS-15 28 Aug 20:50:30 20:53:38 12° 264° (W) 20:56:48 29.354 - 29.394 USB, Beacon 29.352 USB
UKube-1 28 Aug 21:04:37 21:08:17 27° 69° (ENE) 21:11:57 145.840 MHz, 145.915 MHz
Oscar 11 28 Aug 21:13:31 21:16:43 20° 68° (ENE) 21:19:55 145.825 FM, Beacon 2401.500 USB
STRAND 1 28 Aug 21:24:43 21:27:47 16° 297° (WNW) 21:30:52 ?
FUNcube-1 28 Aug 21:34:55 21:36:40 12° 65° (ENE) 21:38:26 145.950 - 145.970 MHz USB
Saudisat 1A 28 Aug 22:11:31 22:12:54 11° 107° (ESE) 22:14:16 436.775 MHz
HO-68 28 Aug 22:33:24 22:39:25 29° 264° (W) 22:45:28 435.675 MHz FM
UKube-1 28 Aug 22:40:57 22:44:26 23° 264° (W) 22:47:56 145.840 MHz, 145.915 MHz
Oscar 11 28 Aug 22:48:48 22:52:40 32° 263° (W) 22:56:34 145.825 FM, Beacon 2401.500 USB
MaSat-1 28 Aug 22:56:26 23:00:06 23° 54° (NE) 23:03:23 437.345 MHz
KITSAT 1 28 Aug 23:08:10 23:14:50 29° 106° (ESE) 23:21:30 435.175 FM
FUNcube-1 28 Aug 23:08:33 23:12:35 50° 260° (W) 23:16:42 145.950 - 145.970 MHz USB
AO-40 28 Aug 23:20:43 02:30:32 27° 123° (ESE) 03:51:08 Beacon 2401.320
Saudisat 1A 28 Aug 23:47:32 23:51:54 64° 302° (WNW) 23:56:18 436.775 MHz
MaSat-1 29 Aug 00:33:14 00:37:10 30° 255° (WSW) 00:40:37 437.345 MHz
KITSAT 1 29 Aug 01:01:46 01:09:42 59° 303° (WNW) 01:17:42 435.175 FM
PCSat 29 Aug 01:36:42 01:39:46 15° 45° (NE) 01:42:50 145.825 MHz
Oscar 19 29 Aug 01:49:04 01:53:05 22° 94° (E) 01:57:04 437.125 CW, 437.150 USB
ITAMSAT 1 29 Aug 02:17:29 02:20:52 17° 93° (E) 02:24:15 435.822 SSB
Oscar 16 29 Aug 02:22:49 02:27:52 50° 100° (E) 02:32:53 437.025 USB, Beacon 2401.1428
Uribyol 2 29 Aug 02:27:22 02:31:29 24° 95° (E) 02:35:36 436.500 FM
AO-Echo 29 Aug 02:31:39 02:35:32 25° 96° (E) 02:39:24 ?
AO-27 29 Aug 02:44:59 02:49:40 34° 97° (E) 02:54:19 436.795 MHz FM
Sapphire 29 Aug 02:48:50 02:54:07 50° 58° (ENE) 02:59:21 437.095 MHz 1200 baud AX-25 AFSK
JAS-1B 29 Aug 03:00:37 03:06:55 41° 96° (E) 03:12:27 435.800 - 435.900 CW/SSB
Oscar 10/S400 29 Aug 03:01:39 04:15:04 45° 229° (SW) 09:55:50 145.825 - 145.975 CW/USB, Beacon 145.810 USB
KITSAT 1 29 Aug 03:02:35 03:07:01 15° 327° (NNW) 03:11:28 435.175 FM
Gurwin Techsat 1B 29 Aug 03:02:42 03:06:46 22° 94° (E) 03:10:49 435.225 FM
PCSat 29 Aug 03:18:26 03:23:53 85° 244° (WSW) 03:29:18 145.825 MHz
Oscar 19 29 Aug 03:27:42 03:32:32 40° 290° (WNW) 03:37:20 437.125 CW, 437.150 USB
SO-50 29 Aug 03:33:10 03:36:25 20° 110° (ESE) 03:39:43 436.795 FM
OPAL 29 Aug 03:39:57 03:43:42 21° 63° (ENE) 03:47:29 ?
TMSAT-1 29 Aug 03:54:40 03:59:50 51° 100° (E) 04:04:57 436.925 FM
ITAMSAT 1 29 Aug 03:55:37 04:00:37 50° 288° (WNW) 04:05:37 435.822 SSB
Oscar 16 29 Aug 04:03:15 04:06:48 19° 296° (WNW) 04:10:21 437.025 USB, Beacon 2401.1428
Uribyol 2 29 Aug 04:06:16 04:11:02 38° 290° (WNW) 04:15:47 436.500 FM
AO-Echo 29 Aug 04:10:15 04:14:16 29° 291° (WNW) 04:18:18 ?
AO-27 29 Aug 04:24:43 04:29:01 27° 293° (WNW) 04:33:18 436.795 MHz FM
Sapphire 29 Aug 04:33:14 04:37:07 20° 254° (WSW) 04:40:59 437.095 MHz 1200 baud AX-25 AFSK
Gurwin Techsat 1B 29 Aug 04:41:54 04:46:52 42° 289° (WNW) 04:51:49 435.225 FM
AO-7 29 Aug 04:44:04 04:51:30 36° 98° (E) 04:58:52 29.400 - 29.500 MHz
JAS-1B 29 Aug 04:51:40 04:57:16 28° 298° (WNW) 05:02:15 435.800 - 435.900 CW/SSB
Uosat F 29 Aug 04:58:34 05:03:12 37° 98° (E) 05:07:49 435.120 FM
SO-50 29 Aug 05:12:29 05:16:40 39° 307° (NW) 05:20:57 436.795 FM
OPAL 29 Aug 05:17:28 05:22:14 43° 259° (W) 05:27:07 ?
TMSAT-1 29 Aug 05:35:41 05:39:19 19° 296° (WNW) 05:42:57 436.925 FM
UOSAT-12 29 Aug 05:41:51 05:45:56 33° 113° (ESE) 05:50:07 437.025 FM, 437.400 FM
AO-7 29 Aug 06:36:33 06:44:23 48° 295° (WNW) 06:52:11 29.400 - 29.500 MHz
Uosat F 29 Aug 06:37:53 06:41:45 23° 294° (WNW) 06:45:36 435.120 FM
RS-15 29 Aug 06:44:53 06:52:46 23° 102° (ESE) 07:00:30 29.354 - 29.394 USB, Beacon 29.352 USB
STRAND 1 29 Aug 06:58:08 07:03:11 69° 74° (ENE) 07:08:15 ?
KITSAT 1 29 Aug 07:03:29 07:07:15 14° 30° (NNE) 07:11:00 435.175 FM
JAS-2 29 Aug 07:11:28 07:16:43 76° 103° (ESE) 07:22:22 435.800 - 435.900 CW/SSB, 435.910 FM
Hamsat 29 Aug 07:14:54 07:19:15 76° 284° (WNW) 07:23:33 145.90 MHz
UOSAT-12 29 Aug 07:22:09 07:26:06 27° 310° (NW) 07:30:07 437.025 FM, 437.400 FM
SO-67 29 Aug 07:43:27 07:46:27 27° 96° (E) 07:49:24 435.3500 MHz FM
Saudisat 1A 29 Aug 08:16:00 08:20:21 57° 57° (ENE) 08:24:40 436.775 MHz
STRAND 1 29 Aug 08:40:50 08:42:49 12° 269° (W) 08:44:49 ?
RS-15 29 Aug 08:52:37 09:03:46 83° 301° (WNW) 09:14:45 29.354 - 29.394 USB, Beacon 29.352 USB
KITSAT 1 29 Aug 08:56:59 09:04:49 51° 55° (NE) 09:12:36 435.175 FM
JAS-2 29 Aug 08:59:15 09:01:16 12° 298° (WNW) 09:03:18 435.800 - 435.900 CW/SSB, 435.910 FM
SO-67 29 Aug 09:17:16 09:19:15 15° 291° (WNW) 09:21:13 435.3500 MHz FM
Saudisat 1A 29 Aug 09:57:25 09:59:25 13° 252° (WSW) 10:01:25 436.775 MHz
HO-68 29 Aug 10:01:36 10:08:40 61° 102° (ESE) 10:15:43 435.675 MHz FM
UKube-1 29 Aug 10:30:01 10:34:20 66° 102° (ESE) 10:38:38 145.840 MHz, 145.915 MHz
Oscar 11 29 Aug 10:37:47 10:42:04 51° 100° (E) 10:46:18 145.825 FM, Beacon 2401.500 USB
KITSAT 1 29 Aug 10:52:52 10:59:53 34° 253° (WSW) 11:06:53 435.175 FM
FUNcube-1 29 Aug 10:59:17 11:03:26 34° 97° (E) 11:07:37 145.950 - 145.970 MHz USB
RS-15 29 Aug 11:09:17 11:17:58 26° 326° (NNW) 11:26:42 29.354 - 29.394 USB, Beacon 29.352 USB
ISS 29 Aug 11:30:23 11:33:42 75° 321° (NW) 11:37:02 145.800 FM
HO-68 29 Aug 11:50:17 11:55:50 25° 299° (WNW) 12:01:23 435.675 MHz FM
SO-50 29 Aug 12:06:14 12:09:03 15° 44° (NE) 12:11:53 436.795 FM
UKube-1 29 Aug 12:08:56 12:09:58 11° 297° (WNW) 12:10:59 145.840 MHz, 145.915 MHz
Oscar 11 29 Aug 12:15:38 12:17:47 14° 295° (WNW) 12:19:56 145.825 FM, Beacon 2401.500 USB
FUNcube-1 29 Aug 12:36:13 12:39:35 21° 292° (WNW) 12:42:59 145.950 - 145.970 MHz USB
MaSat-1 29 Aug 12:43:31 12:46:14 15° 100° (E) 12:49:02 437.345 MHz
Oscar 19 29 Aug 13:04:11 13:08:28 27° 67° (ENE) 13:12:47 437.125 CW, 437.150 USB
ISS 29 Aug 13:09:04 13:10:55 14° 339° (NNW) 13:12:46 145.800 FM
PANSAT 29 Aug 13:20:37 13:23:12 17° 170° (S) 13:25:47 not established
RS-15 29 Aug 13:30:26 13:36:04 15° 3° (N) 13:41:44 29.354 - 29.394 USB, Beacon 29.352 USB
ITAMSAT 1 29 Aug 13:33:42 13:37:42 23° 66° (ENE) 13:41:41 435.822 SSB
Oscar 16 29 Aug 13:37:53 13:42:56 60° 73° (ENE) 13:48:02 437.025 USB, Beacon 2401.1428
JAS-1B 29 Aug 13:39:57 13:48:50 41° 66° (ENE) 13:56:57 435.800 - 435.900 CW/SSB
AO-Echo 29 Aug 13:42:42 13:47:03 30° 69° (ENE) 13:51:17 ?
Uribyol 2 29 Aug 13:43:30 13:47:56 30° 68° (ENE) 13:52:23 436.500 FM
SO-50 29 Aug 13:45:20 13:50:08 75° 241° (WSW) 13:54:58 436.795 FM
AO-27 29 Aug 14:01:19 14:06:10 43° 71° (ENE) 14:11:03 436.795 MHz FM
UOSAT-12 29 Aug 14:13:25 14:16:56 20° 47° (NE) 14:20:25 437.025 FM, 437.400 FM
MaSat-1 29 Aug 14:17:53 14:22:37 59° 297° (WNW) 14:27:42 437.345 MHz
Gurwin Techsat 1B 29 Aug 14:21:57 14:26:28 30° 68° (ENE) 14:31:01 435.225 FM
Oscar 19 29 Aug 14:43:03 14:47:39 33° 263° (W) 14:52:19 437.125 CW, 437.150 USB
PANSAT 29 Aug 14:59:55 15:02:49 20° 183° (S) 15:05:42 not established
ITAMSAT 1 29 Aug 15:12:06 15:16:55 40° 261° (W) 15:21:46 435.822 SSB
TMSAT-1 29 Aug 15:13:32 15:18:46 66° 74° (ENE) 15:24:01 436.925 FM
Oscar 16 29 Aug 15:19:55 15:22:39 14° 269° (W) 15:25:25 437.025 USB, Beacon 2401.1428
AO-Echo 29 Aug 15:21:23 15:25:44 28° 263° (W) 15:30:00 ?
Uribyol 2 29 Aug 15:22:52 15:27:19 29° 263° (W) 15:31:49 436.500 FM
